Regional Weather Roundup
Issued by NWS Goodland, KS

Home | Current Version | Previous Version | Graphics & Text | Print | Product List | Glossary On
Versions: 1 2 3 4 5 6 7 8 9 10 11 12 13 14 15 16 17 18 19 20 21 22 23 24 25 26 27 28 29 30 31 32 33 34 35 36 37 38 39 40 41 42 43 44 45 46 47 48 49 50
000
ASUS43 KGLD 190459
RWRGLD

GOODLAND FORECAST AREA HOURLY WEATHER ROUNDUP
NATIONAL WEATHER SERVICE GOODLAND KS
1100 PM MDT WED OCT 18 2017

...OFFICIAL OBSERVATIONS...

CITY           SKY/WX    TMP DP  RH WIND       PRES   REMARKS
GOODLAND KS    CLEAR     46  35  65 SE8       30.11S
HILL CITY KS   CLEAR     49  38  65 CALM      30.09S
IMPERIAL NEB   CLOUDY    46  33  60 SE5       30.10S
MCCOOK NEB     CLEAR     47  35  63 E5        30.09F
AKRON CO       CLOUDY    49  27  42 S14       30.13F
BURLINGTON CO  CLOUDY    46  32  58 SE7       30.14S
LIMON CO       CLOUDY    33  26  75 N3        30.19S
$$

...UNOFFICIAL OBSERVATIONS...

CITY           SKY/WX    TMP DP  RH WIND       PRES   REMARKS
LENORA KS        N/A     49  32  52 MISG        N/A
NORTON KS      CLEAR     48  34  57 CALM      30.08S
SHARON SPRINGS   N/A     51  34  53 CALM        N/A
TRENTON NEB      N/A     49  32  52 SE5         N/A
YUMA CO        FAIR      37  30  75 S8        30.12F
$$



USA.gov is the U.S. government's official web portal to all federal, state and local government web resources and services.